Météo par heure à Almaguer

Ce jour, 15 Mai, Samedi

Heure Température Précipitation Vent Pression Humidité
00:00 +14°C° 0.1 mm 1 m/s 588 mmHg 94%
01:00 +14°C° 0.1 mm 1 m/s 587 mmHg 94%
02:00 +13°C° 0.1 mm 1 m/s 587 mmHg 95%
03:00 +13°C° 0.1 mm 1 m/s 587 mmHg 95%
04:00 +13°C° 0.1 mm 1 m/s 587 mmHg 95%
05:00 +14°C° 0.2 mm 1 m/s 587 mmHg 94%
06:00 +14°C° 0.2 mm 1 m/s 587 mmHg 93%
07:00 +14°C° 0.2 mm 1 m/s 588 mmHg 93%
08:00 +15°C° 0.2 mm 1 m/s 588 mmHg 90%
09:00 +16°C° 0.2 mm 1 m/s 589 mmHg 88%
10:00 +16°C° 0.2 mm 0 m/s 590 mmHg 85%
11:00 +19°C° 0.5 mm 1 m/s 589 mmHg 83%
12:00 +20°C° 0.5 mm 1 m/s 589 mmHg 81%
13:00 +20°C° 0.5 mm 1 m/s 589 mmHg 79%
14:00 +20°C° 0.8 mm 1 m/s 588 mmHg 81%
15:00 +20°C° 0.8 mm 1 m/s 588 mmHg 83%
16:00 +17°C° 0.8 mm 0 m/s 587 mmHg 84%
17:00 +18°C° 0.8 mm 1 m/s 587 mmHg 88%
18:00 +16°C° 0.8 mm 1 m/s 587 mmHg 91%
19:00 +15°C° 0.8 mm 2 m/s 587 mmHg 94%
20:00 +14°C° 0.5 mm 1 m/s 588 mmHg 94%
21:00 +14°C° 0.5 mm 1 m/s 588 mmHg 94%
22:00 +14°C° 0.5 mm 1 m/s 588 mmHg 94%
23:00 +13°C° 0.2 mm 1 m/s 588 mmHg 94%

Demain, 16 Mai, Dimanche

Heure Température Précipitation Vent Pression Humidité
00:00 +13°C° 0.2 mm 1 m/s 588 mmHg 95%
01:00 +13°C° 0.2 mm 1 m/s 587 mmHg 95%
02:00 +13°C° 0.3 mm 1 m/s 587 mmHg 95%
03:00 +13°C° 0.3 mm 1 m/s 587 mmHg 95%
04:00 +13°C° 0.3 mm 0 m/s 587 mmHg 95%
05:00 +13°C° 0 mm 0 m/s 587 mmHg 95%
06:00 +13°C° 0 mm 0 m/s 588 mmHg 94%
07:00 +13°C° 0 mm 0 m/s 588 mmHg 94%
08:00 +14°C° 0.3 mm 0 m/s 589 mmHg 92%
09:00 +14°C° 0.3 mm 0 m/s 589 mmHg 91%
10:00 +15°C° 0.3 mm 0 m/s 590 mmHg 89%
11:00 +18°C° 0.2 mm 1 m/s 589 mmHg 87%
12:00 +19°C° 0.2 mm 1 m/s 589 mmHg 84%
13:00 +19°C° 0.2 mm 1 m/s 589 mmHg 81%
14:00 +19°C° 0.6 mm 1 m/s 588 mmHg 83%
15:00 +19°C° 0.6 mm 1 m/s 588 mmHg 85%
16:00 +18°C° 0.6 mm 1 m/s 587 mmHg 86%
17:00 +16°C° 0.7 mm 1 m/s 588 mmHg 89%
18:00 +16°C° 0.7 mm 1 m/s 588 mmHg 92%
19:00 +15°C° 0.7 mm 1 m/s 588 mmHg 94%
20:00 +15°C° 0.2 mm 1 m/s 588 mmHg 94%
21:00 +14°C° 0.2 mm 1 m/s 589 mmHg 94%
22:00 +14°C° 0.2 mm 1 m/s 589 mmHg 94%
23:00 +14°C° 0.1 mm 1 m/s 588 mmHg 94%

Après-demain, 17 Mai, Lundi

Heure Température Précipitation Vent Pression Humidité
00:00 +14°C° 0.1 mm 1 m/s 588 mmHg 94%
01:00 +14°C° 0.1 mm 1 m/s 588 mmHg 94%
02:00 +14°C° 0.3 mm 1 m/s 587 mmHg 94%
03:00 +13°C° 0.3 mm 1 m/s 587 mmHg 94%
04:00 +13°C° 0.3 mm 1 m/s 587 mmHg 94%
05:00 +14°C° 0.1 mm 1 m/s 587 mmHg 94%
06:00 +14°C° 0.1 mm 1 m/s 588 mmHg 93%
07:00 +14°C° 0.1 mm 1 m/s 588 mmHg 93%
08:00 +15°C° 0.2 mm 1 m/s 589 mmHg 89%
09:00 +16°C° 0.2 mm 1 m/s 589 mmHg 86%
10:00 +19°C° 0.2 mm 1 m/s 590 mmHg 82%
11:00 +19°C° 0.6 mm 1 m/s 590 mmHg 82%
12:00 +19°C° 0.6 mm 1 m/s 590 mmHg 82%
13:00 +20°C° 0.6 mm 1 m/s 589 mmHg 81%
14:00 +19°C° 1 mm 1 m/s 589 mmHg 83%
15:00 +19°C° 1 mm 1 m/s 588 mmHg 86%
16:00 +18°C° 1 mm 1 m/s 587 mmHg 88%
17:00 +16°C° 0.6 mm 1 m/s 588 mmHg 90%
18:00 +15°C° 0.6 mm 1 m/s 588 mmHg 92%
19:00 +14°C° 0.6 mm 1 m/s 588 mmHg 95%
20:00 +14°C° 0.4 mm 1 m/s 588 mmHg 94%
21:00 +14°C° 0.4 mm 1 m/s 589 mmHg 94%
22:00 +14°C° 0.4 mm 1 m/s 589 mmHg 94%
23:00 +14°C° 0.1 mm 1 m/s 589 mmHg 94%

18 Mai, Mardi

Heure Température Précipitation Vent Pression Humidité
00:00 +13°C° 0.1 mm 1 m/s 588 mmHg 94%
01:00 +13°C° 0.1 mm 1 m/s 588 mmHg 95%
02:00 +13°C° 0.3 mm 1 m/s 588 mmHg 95%
03:00 +13°C° 0.3 mm 1 m/s 588 mmHg 95%
04:00 +12°C° 0.3 mm 0 m/s 588 mmHg 95%
05:00 +13°C° 0.1 mm 0 m/s 588 mmHg 95%
06:00 +14°C° 0.1 mm 1 m/s 588 mmHg 95%
07:00 +14°C° 0.1 mm 1 m/s 589 mmHg 95%
08:00 +15°C° 0.2 mm 1 m/s 589 mmHg 92%
09:00 +15°C° 0.2 mm 1 m/s 590 mmHg 90%
10:00 +16°C° 0.2 mm 1 m/s 590 mmHg 88%
11:00 +18°C° 0.5 mm 1 m/s 590 mmHg 86%
12:00 +19°C° 0.5 mm 1 m/s 590 mmHg 83%
13:00 +19°C° 0.5 mm 1 m/s 589 mmHg 81%
14:00 +19°C° 0.6 mm 1 m/s 589 mmHg 82%
15:00 +17°C° 0.6 mm 0 m/s 588 mmHg 84%
16:00 +16°C° 0.6 mm 0 m/s 588 mmHg 85%
17:00 +16°C° 0.6 mm 1 m/s 588 mmHg 88%
18:00 +15°C° 0.6 mm 1 m/s 588 mmHg 90%
19:00 +14°C° 0.6 mm 1 m/s 588 mmHg 93%
20:00 +14°C° 0.3 mm 1 m/s 588 mmHg 92%
21:00 +13°C° 0.3 mm 1 m/s 588 mmHg 92%
22:00 +13°C° 0.3 mm 2 m/s 589 mmHg 92%
23:00 +13°C° 0.1 mm 1 m/s 588 mmHg 91%

19 Mai, Mercredi

Heure Température Précipitation Vent Pression Humidité
00:00 +13°C° 0.1 mm 1 m/s 588 mmHg 91%
01:00 +13°C° 0.1 mm 1 m/s 588 mmHg 91%
02:00 +13°C° 0 mm 1 m/s 587 mmHg 90%
03:00 +13°C° 0 mm 1 m/s 587 mmHg 89%
04:00 +13°C° 0 mm 1 m/s 587 mmHg 89%
05:00 +13°C° 0 mm 1 m/s 587 mmHg 88%
06:00 +14°C° 0 mm 1 m/s 588 mmHg 87%
07:00 +14°C° 0 mm 1 m/s 588 mmHg 86%
08:00 +16°C° 0 mm 1 m/s 589 mmHg 79%
09:00 +19°C° 0 mm 1 m/s 590 mmHg 73%
10:00 +21°C° 0 mm 1 m/s 590 mmHg 66%
11:00 +21°C° 0.2 mm 1 m/s 590 mmHg 65%
12:00 +22°C° 0.2 mm 1 m/s 590 mmHg 63%
13:00 +23°C° 0.2 mm 1 m/s 589 mmHg 61%
14:00 +22°C° 0.6 mm 1 m/s 589 mmHg 64%
15:00 +22°C° 0.6 mm 1 m/s 588 mmHg 67%
16:00 +21°C° 0.6 mm 1 m/s 588 mmHg 70%
17:00 +20°C° 0.7 mm 1 m/s 587 mmHg 77%
18:00 +18°C° 0.7 mm 1 m/s 587 mmHg 85%
19:00 +15°C° 0.7 mm 2 m/s 587 mmHg 93%
20:00 +14°C° 0.2 mm 2 m/s 587 mmHg 92%
21:00 +14°C° 0.2 mm 2 m/s 588 mmHg 92%
22:00 +13°C° 0.2 mm 2 m/s 588 mmHg 91%
23:00 +13°C° 0 mm 2 m/s 588 mmHg 91%

20 Mai, Jeudi

Heure Température Précipitation Vent Pression Humidité
00:00 +13°C° 0 mm 2 m/s 587 mmHg 91%
01:00 +13°C° 0 mm 2 m/s 587 mmHg 91%
02:00 +13°C° 0 mm 2 m/s 587 mmHg 91%
03:00 +13°C° 0 mm 2 m/s 587 mmHg 91%
04:00 +13°C° 0 mm 2 m/s 587 mmHg 90%
05:00 +13°C° 0 mm 2 m/s 587 mmHg 89%
06:00 +14°C° 0 mm 1 m/s 587 mmHg 87%
07:00 +14°C° 0 mm 1 m/s 588 mmHg 86%
08:00 +16°C° 0 mm 1 m/s 589 mmHg 79%
09:00 +19°C° 0 mm 1 m/s 589 mmHg 73%
10:00 +21°C° 0 mm 1 m/s 590 mmHg 67%
11:00 +21°C° 0.1 mm 1 m/s 590 mmHg 65%
12:00 +22°C° 0.1 mm 1 m/s 590 mmHg 63%
13:00 +22°C° 0.1 mm 1 m/s 589 mmHg 61%
14:00 +22°C° 0.5 mm 1 m/s 589 mmHg 65%
15:00 +22°C° 0.5 mm 1 m/s 588 mmHg 68%
16:00 +21°C° 0.5 mm 1 m/s 587 mmHg 72%
17:00 +20°C° 0.6 mm 1 m/s 587 mmHg 78%
18:00 +18°C° 0.6 mm 1 m/s 587 mmHg 85%
19:00 +15°C° 0.6 mm 2 m/s 587 mmHg 92%
20:00 +14°C° 0.3 mm 2 m/s 587 mmHg 92%
21:00 +14°C° 0.3 mm 2 m/s 587 mmHg 92%
22:00 +14°C° 0.3 mm 2 m/s 588 mmHg 92%
23:00 +13°C° 0.1 mm 2 m/s 588 mmHg 92%
Voir plus

Nous avons besoin de votre consentement

Meteoprog et ses fournisseurs de services peuvent stocker et accéder à des données personnelles telles que des cookies, des identifiants d'appareils ou d'autres technologies similaires sur votre appareil et traiter ces données pour personnaliser le contenu et les publicités, ainsi que pour fournir des fonctionnalités de médias sociaux et analyser le trafic.

  • Stocker et/ou accéder à des informations sur votre appareil

    Des cookies, des identifiants d'appareils ou d'autres informations peuvent être stockés ou accessibles sur votre appareil aux fins indiquées ci-dessus.

  • Annonces et contenus personnalisés, mesure des annonces et des contenus, connaissance de l'audience et développement de produits

    Les annonces et le contenu peuvent être personnalisés en fonction d'un profil. D'autres données peuvent être ajoutées pour mieux personnaliser les annonces et le contenu. Les performances des publicités et du contenu peuvent être mesurées. Il est possible d'obtenir des informations sur le public qui a vu les publicités et le contenu. Ces données peuvent être utilisées pour développer ou améliorer l'expérience de l'utilisateur, les systèmes et les logiciels.

En cliquant sur "J'accepte", vous autorisez l'utilisation de cookies, des identifiants d'appareils, des balises web ou d'autres technologies similaires. Vos paramètres peuvent être modifiés dans le navigateur de votre appareil.

Dans certains cas, des intérêts légitimes peuvent être invoqués plutôt qu'un consentement. Vous pouvez en savoir plus à ce sujet dans notre Politique de confidentialité et de cookies.